Volver al catálogo

STARLINK-34681

ActivoComunicacionesVLEO
NORAD 66438·PAYLOAD·🇺🇸 United States

Lanzado Nov 11, 2025 desde Cape Canaveral Space Force Station

Loading…

Próximos Pases (próximas 24 horas)

TLE

ActualizadoSource: CelesTrak SupGP

Época: Sep 15, 2026, 02:54 UTC

1 66438C 25259S   26258.12131944  .00007369  00000+0  26679-3 0  2583
2 66438  43.0026 284.6032 0001634 271.6710  15.5826 15.27587490    13

Sigue STARLINK-34681 en tiempo real con AllMySat

Download on the App Store